Tracking 29493 objects as of 9-Sep-2024
HD Live streaming from Space Station
objects crossing your sky now

STARLINK-3194

Track STARLINK-3194 now!
10-day predictions
STARLINK-3194 is classified as:


NORAD ID: 49758
Int'l Code: 2021-115AL
Perigee: 546.1 km
Apogee: 547.6 km
Inclination: 53.2 °
Period: 95.4 minutes
Semi major axis: 6917 km
RCS: Unknown
Launch date: December 2, 2021
Source: United States (US)
Launch site: AIR FORCE EASTERN TEST RANGE (AFETR)
Your satellite tracking list
Your tracking list is empty




NASA's NSSDC Master Catalog

Two Line Element Set (TLE):
1 49758U 21115AL  24252.88265114  .00001453  00000-0  10935-3 0  9997
2 49758  53.2170  73.8343 0001147  89.7156 270.3967 15.08848487154232
Source of the keplerian elements: AFSPC